�������l�o���
Date,Time,MP-1(��Sv/h),MP-2(��Sv/h),MP-3(��Sv/h),MP-4(��Sv/h),MP-5(��Sv/h),MP-6(��Sv/h),MP-7(��Sv/h),MP-8(��Sv/h),����,����(m/s),���J
2018/11/19,00:00,0.786,1.189,0.830,1.480,1.073,0.457,0.804,0.761,�쐼,1.7,��
2018/11/19,00:10,0.785,1.188,0.832,1.480,1.074,0.457,0.805,0.761,���쐼,2.0,��
2018/11/19,00:20,0.788,1.188,0.831,1.476,1.075,0.455,0.805,0.763,��,2.0,��
2018/11/19,00:30,0.784,1.188,0.830,1.480,1.074,0.458,0.805,0.762,��,1.7,�L
2018/11/19,00:40,0.785,1.190,0.829,1.480,1.074,0.457,0.806,0.763,��,2.0,�L
2018/11/19,00:50,0.784,1.191,0.830,1.478,1.076,0.456,0.805,0.760,��,1.7,�L
2018/11/19,01:00,0.786,1.191,0.830,1.477,1.074,0.457,0.804,0.763,��,2.3,�L
2018/11/19,01:10,0.786,1.191,0.830,1.481,1.076,0.457,0.805,0.762,���k��,1.5,�L
2018/11/19,01:20,0.785,1.189,0.830,1.477,1.076,0.458,0.804,0.762,��,2.0,�L
2018/11/19,01:30,0.785,1.190,0.830,1.483,1.073,0.458,0.805,0.761,���k��,2.0,�L
2018/11/19,01:40,0.785,1.191,0.832,1.478,1.074,0.456,0.807,0.762,�k��,2.3,��
2018/11/19,01:50,0.786,1.188,0.830,1.479,1.074,0.457,0.807,0.761,�k��,1.5,�L
2018/11/19,02:00,0.787,1.190,0.831,1.478,1.074,0.458,0.805,0.762,���k��,1.5,�L
2018/11/19,02:10,0.788,1.192,0.831,1.483,1.076,0.458,0.805,0.760,���k��,2.0,�L
2018/11/19,02:20,0.788,1.191,0.832,1.480,1.074,0.458,0.804,0.761,���k��,1.7,�L
2018/11/19,02:30,0.787,1.191,0.831,1.481,1.076,0.459,0.806,0.762,���k��,2.6,�L
2018/11/19,02:40,0.788,1.190,0.831,1.482,1.074,0.457,0.805,0.761,��,2.2,�L
2018/11/19,02:50,0.785,1.189,0.833,1.482,1.074,0.458,0.804,0.762,��,1.5,�L
2018/11/19,03:00,0.786,1.188,0.831,1.482,1.074,0.460,0.805,0.762,��,2.0,�L
2018/11/19,03:10,0.785,1.187,0.831,1.479,1.071,0.460,0.806,0.763,���k��,2.0,�L
2018/11/19,03:20,0.787,1.184,0.828,1.478,1.072,0.461,0.805,0.763,���k��,1.4,�L
2018/11/19,03:30,0.785,1.187,0.832,1.478,1.072,0.459,0.804,0.761,���k��,1.1,�L
2018/11/19,03:40,0.784,1.183,0.828,1.478,1.070,0.460,0.802,0.762,��,0.9,�L
2018/11/19,03:50,0.785,1.180,0.831,1.477,1.070,0.460,0.804,0.762,�k,1.1,�L
2018/11/19,04:00,0.784,1.179,0.829,1.479,1.066,0.461,0.804,0.760,�k��,1.9,�L
2018/11/19,04:10,0.783,1.177,0.830,1.474,1.066,0.460,0.803,0.759,�k�k��,2.0,�L
2018/11/19,04:20,0.784,1.174,0.829,1.472,1.062,0.463,0.802,0.760,���k��,2.9,�L
2018/11/19,04:30,0.781,1.171,0.829,1.470,1.060,0.460,0.801,0.758,�k,1.7,�L
2018/11/19,04:40,0.782,1.169,0.828,1.471,1.059,0.461,0.801,0.759,�k�k��,4.1,�L
2018/11/19,04:50,0.781,1.170,0.825,1.466,1.058,0.459,0.802,0.759,�k�k��,3.2,�L
2018/11/19,05:00,0.779,1.167,0.824,1.469,1.058,0.458,0.800,0.759,�k�k��,4.2,�L
2018/11/19,05:10,0.779,1.166,0.823,1.469,1.055,0.458,0.798,0.759,�k�k��,4.6,�L
2018/11/19,05:20,0.777,1.166,0.821,1.463,1.054,0.458,0.799,0.756,�k�k��,4.1,�L
2018/11/19,05:30,0.777,1.164,0.821,1.466,1.056,0.457,0.801,0.756,�k�k��,4.1,�L
2018/11/19,05:40,0.774,1.163,0.819,1.461,1.053,0.457,0.799,0.758,�k�k��,4.4,�L
2018/11/19,05:50,0.774,1.163,0.821,1.462,1.053,0.456,0.798,0.756,�k�k��,5.5,�L
2018/11/19,06:00,0.773,1.163,0.818,1.463,1.050,0.453,0.798,0.756,�k�k��,4.9,�L
2018/11/19,06:10,0.774,1.162,0.817,1.462,1.051,0.456,0.798,0.757,�k�k��,4.7,�L
2018/11/19,06:20,0.773,1.159,0.818,1.461,1.052,0.455,0.798,0.755,�k��,3.4,�L
2018/11/19,06:30,0.773,1.161,0.818,1.459,1.049,0.455,0.796,0.755,�k��,2.2,�L
2018/11/19,06:40,0.773,1.159,0.818,1.458,1.052,0.455,0.798,0.755,�k�k��,3.3,�L
2018/11/19,06:50,0.771,1.160,0.819,1.458,1.049,0.455,0.797,0.755,�k�k��,3.9,�L
2018/11/19,07:00,0.768,1.159,0.817,1.461,1.048,0.455,0.798,0.756,�k�k��,3.9,�L
2018/11/19,07:10,0.771,1.158,0.817,1.459,1.051,0.456,0.796,0.755,�k�k��,5.2,�L
2018/11/19,07:20,0.772,1.156,0.816,1.457,1.049,0.454,0.797,0.755,�k�k��,5.6,�L
2018/11/19,07:30,0.769,1.157,0.816,1.457,1.051,0.453,0.797,0.756,�k�k��,4.6,�L
2018/11/19,07:40,0.772,1.156,0.814,1.456,1.049,0.455,0.796,0.756,�k�k��,3.4,��
2018/11/19,07:50,0.768,1.156,0.815,1.456,1.047,0.454,0.796,0.756,�k��,3.9,�L
2018/11/19,08:00,0.771,1.157,0.816,1.458,1.049,0.455,0.797,0.756,�k��,4.1,�L
2018/11/19,08:10,0.771,1.156,0.814,1.458,1.047,0.454,0.798,0.756,�k�k��,4.3,�L
2018/11/19,08:20,0.770,1.154,0.814,1.456,1.047,0.454,0.798,0.757,�k�k��,4.4,��
2018/11/19,08:30,0.768,1.154,0.816,1.458,1.047,0.454,0.798,0.755,�k�k��,3.1,��
2018/11/19,08:40,0.770,1.155,0.814,1.457,1.050,0.454,0.798,0.754,�k�k��,2.0,��
2018/11/19,08:50,0.769,1.158,0.815,1.458,1.046,0.452,0.799,0.756,�k,3.0,��
2018/11/19,09:00,0.769,1.156,0.813,1.458,1.046,0.452,0.797,0.755,�k�k��,3.6,�L
2018/11/19,09:10,0.770,1.158,0.815,1.459,1.049,0.453,0.799,0.754,�k�k��,3.6,��
2018/11/19,09:20,0.772,1.159,0.816,1.458,1.048,0.454,0.798,0.755,�k�k��,2.6,��
2018/11/19,09:30,0.772,1.156,0.816,1.458,1.050,0.453,0.798,0.756,�k�k��,2.9,��
2018/11/19,09:40,0.772,1.156,0.816,1.459,1.050,0.453,0.796,0.757,�k,3.5,��
2018/11/19,09:50,0.772,1.153,0.815,1.457,1.050,0.453,0.797,0.756,�k�k��,3.5,��
2018/11/19,10:00,0.770,1.155,0.816,1.461,1.050,0.451,0.797,0.756,�k,4.4,��
2018/11/19,10:10,0.772,1.155,0.817,1.459,1.051,0.453,0.796,0.756,�k�k��,4.1,��
2018/11/19,10:20,0.771,1.154,0.815,1.456,1.050,0.453,0.796,0.757,�k�k��,2.9,��
2018/11/19,10:30,0.772,1.154,0.818,1.460,1.052,0.452,0.795,0.754,�k�k��,3.5,��
2018/11/19,10:40,0.771,1.153,0.818,1.458,1.051,0.450,0.795,0.756,�k,3.6,��
2018/11/19,10:50,0.770,1.155,0.818,1.460,1.050,0.451,-,0.754,�k�k��,3.4,��
2018/11/19,11:00,0.771,1.155,0.818,1.458,1.051,0.453,-,0.756,�k,4.7,��
2018/11/19,11:10,0.772,1.153,0.816,1.460,1.051,0.452,-,0.755,�k,4.1,��
2018/11/19,11:20,0.774,1.159,0.818,1.460,1.049,0.452,-,0.755,�k,4.6,��
2018/11/19,11:30,0.773,1.154,0.819,1.459,1.051,0.453,-,0.756,�k,3.9,��
2018/11/19,11:40,0.773,1.156,0.818,1.459,1.051,0.453,-,0.758,�k,3.2,��
2018/11/19,11:50,0.776,1.158,0.817,1.459,1.050,0.454,-,0.755,�k�k��,3.5,��
2018/11/19,12:00,0.772,1.163,0.816,1.461,1.051,0.452,-,0.756,�k,3.4,��
2018/11/19,12:10,0.775,1.163,0.817,1.458,1.052,0.453,-,0.756,�k�k��,4.4,��
2018/11/19,12:20,0.774,1.163,0.817,1.460,1.053,0.453,-,0.756,�k,4.3,��
2018/11/19,12:30,0.773,1.159,0.818,1.458,1.051,0.453,-,0.756,�k�k��,3.2,��
2018/11/19,12:40,0.773,1.160,0.819,1.461,1.050,0.454,-,0.756,�k,2.2,��
2018/11/19,12:50,0.775,1.161,0.819,1.461,1.054,0.454,-,0.756,�k�k��,1.9,��
2018/11/19,13:00,0.774,1.163,0.819,1.460,1.052,0.454,-,0.758,�k�k��,1.7,��
2018/11/19,13:10,0.773,1.164,0.816,1.461,1.053,0.453,-,0.757,�k,1.4,��
2018/11/19,13:20,0.775,1.159,0.818,1.459,1.052,0.453,-,0.756,���k��,1.5,��
2018/11/19,13:30,0.774,1.161,0.817,1.461,1.054,0.454,-,0.757,�k�k��,1.5,��
2018/11/19,13:40,0.773,1.160,0.819,1.460,1.053,0.453,-,0.755,�k,2.2,��
2018/11/19,13:50,0.774,1.158,0.819,1.462,1.053,0.453,-,0.755,�k,1.7,��
2018/11/19,14:00,0.774,1.160,0.818,1.462,1.054,0.455,-,0.757,�k,1.5,��
2018/11/19,14:10,0.776,1.158,0.819,1.459,1.053,0.454,-,0.758,�k,1.5,��
2018/11/19,14:20,0.775,1.157,0.819,1.462,1.053,0.454,-,0.755,�k�k��,0.9,��
2018/11/19,14:30,0.777,1.163,0.821,1.460,1.056,0.454,-,0.757,-,CALM,��
2018/11/19,14:40,0.775,1.160,0.821,1.463,1.057,0.453,-,0.758,-,CALM,��
2018/11/19,14:50,0.775,1.160,0.818,1.462,1.056,0.453,1.086,0.757,�k��,1.2,��
2018/11/19,15:00,0.776,1.162,0.820,1.463,1.054,0.456,-,0.757,�k�k��,2.6,��
2018/11/19,15:10,0.775,1.165,0.820,1.462,1.056,0.455,-,0.757,�k�k��,3.4,��
2018/11/19,15:20,0.776,1.160,0.818,1.461,1.056,0.455,-,0.759,�k,3.0,��
2018/11/19,15:30,0.774,1.163,0.821,1.460,1.057,0.453,0.819,0.757,�k,3.3,��
2018/11/19,15:40,0.776,1.163,0.819,1.461,1.055,0.453,0.799,0.757,�k,3.1,��
2018/11/19,15:50,0.777,1.164,0.821,1.462,1.055,0.454,0.798,0.760,�k�k��,2.3,��
2018/11/19,16:00,0.774,1.163,0.820,1.461,1.052,0.454,0.800,0.756,�k,1.5,��
2018/11/19,16:10,0.775,1.166,0.818,1.460,1.053,0.454,0.799,0.760,�k,1.9,��
2018/11/19,16:20,0.773,1.167,0.818,1.463,1.054,0.454,0.801,0.759,�k�k��,2.3,��
2018/11/19,16:30,0.776,1.169,0.819,1.464,1.056,0.455,0.802,0.758,�k�k��,2.2,��
2018/11/19,16:40,0.775,1.167,0.821,1.462,1.055,0.454,0.801,0.758,�k�k��,2.3,��
2018/11/19,16:50,0.774,1.165,0.817,1.462,1.056,0.453,0.800,0.758,�k��,3.0,��
2018/11/19,17:00,0.773,1.166,0.822,1.461,1.056,0.454,0.801,0.757,���k��,2.8,��
2018/11/19,17:10,0.774,1.167,0.820,1.461,1.056,0.454,0.800,0.757,���k��,4.6,��
2018/11/19,17:20,0.775,1.167,0.818,1.462,1.056,0.454,0.800,0.757,�k��,3.7,��
2018/11/19,17:30,0.774,1.166,0.819,1.460,1.054,0.455,0.801,0.756,���k��,3.0,��
2018/11/19,17:40,0.772,1.166,0.819,1.461,1.054,0.453,0.800,0.757,�k��,6.7,��
2018/11/19,17:50,0.773,1.166,0.819,1.462,1.053,0.454,0.801,0.757,�k��,8.5,��
2018/11/19,18:00,0.774,1.166,0.819,1.462,1.055,0.455,0.801,0.754,�k��,10.3,��
2018/11/19,18:10,0.772,1.167,0.819,1.463,1.054,0.454,0.802,0.756,�k��,8.4,��
2018/11/19,18:20,0.773,1.166,0.818,1.464,1.054,0.454,0.800,0.758,���k��,7.8,��
2018/11/19,18:30,0.773,1.167,0.820,1.463,1.055,0.452,0.801,0.757,���k��,7.9,��
2018/11/19,18:40,0.775,1.166,0.820,1.462,1.054,0.454,0.801,0.755,���k��,7.5,��
2018/11/19,18:50,0.774,1.168,0.819,1.463,1.054,0.453,0.801,0.755,���k��,5.9,��
2018/11/19,19:00,0.774,1.165,0.819,1.462,1.054,0.454,0.802,0.756,�k��,6.5,��
2018/11/19,19:10,0.774,1.168,0.821,1.464,1.054,0.452,0.801,0.756,�k��,7.4,��
2018/11/19,19:20,0.774,1.167,0.820,1.464,1.056,0.454,0.802,0.758,�k��,7.6,��
2018/11/19,19:30,0.774,1.167,0.819,1.466,1.055,0.453,0.803,0.757,�k��,7.2,��
2018/11/19,19:40,0.775,1.165,0.819,1.464,1.054,0.452,0.801,0.757,�k��,6.1,��
2018/11/19,19:50,0.773,1.166,0.818,1.462,1.053,0.455,0.801,0.757,�k��,6.7,��
2018/11/19,20:00,0.772,1.166,0.819,1.462,1.053,0.455,0.801,0.755,�k�k��,7.0,��
2018/11/19,20:10,0.773,1.167,0.820,1.463,1.054,0.453,0.802,0.758,�k�k��,6.2,��
2018/11/19,20:20,0.773,1.164,0.820,1.466,1.054,0.454,0.801,0.756,�k�k��,5.8,��
2018/11/19,20:30,0.774,1.163,0.820,1.463,1.054,0.454,0.802,0.758,�k�k��,5.9,��
2018/11/19,20:40,0.774,1.165,0.821,1.463,1.055,0.454,0.802,0.756,�k�k��,5.1,��
2018/11/19,20:50,0.773,1.166,0.818,1.466,1.054,0.454,0.801,0.756,�k��,3.9,��
2018/11/19,21:00,0.772,1.166,0.819,1.464,1.055,0.455,0.800,0.758,�k��,4.1,��
2018/11/19,21:10,0.774,1.165,0.819,1.465,1.053,0.454,0.801,0.757,�k��,4.3,��
2018/11/19,21:20,0.772,1.167,0.819,1.466,1.053,0.453,0.801,0.756,�k��,5.5,��
2018/11/19,21:30,0.774,1.166,0.820,1.466,1.055,0.453,0.802,0.757,�k��,6.4,��
2018/11/19,21:40,0.773,1.165,0.821,1.467,1.054,0.454,0.802,0.757,�k��,5.7,��
2018/11/19,21:50,0.772,1.168,0.820,1.464,1.055,0.453,0.800,0.756,�k��,6.5,��
2018/11/19,22:00,0.772,1.163,0.819,1.465,1.055,0.454,0.804,0.756,�k��,5.3,��
2018/11/19,22:10,0.773,1.169,0.821,1.464,1.055,0.452,0.802,0.756,�k�k��,4.5,��
2018/11/19,22:20,0.773,1.168,0.820,1.465,1.055,0.454,0.799,0.759,�k�k��,5.4,��
2018/11/19,22:30,0.771,1.169,0.818,1.465,1.056,0.453,0.802,0.756,�k�k��,6.4,��
2018/11/19,22:40,0.773,1.166,0.818,1.466,1.055,0.454,0.802,0.756,�k�k��,7.1,��
2018/11/19,22:50,0.771,1.167,0.819,1.464,1.054,0.452,0.799,0.756,�k�k��,7.7,��
2018/11/19,23:00,0.772,1.168,0.819,1.464,1.053,0.455,0.803,0.756,�k�k��,7.3,��
2018/11/19,23:10,0.771,1.166,0.816,1.465,1.054,0.453,0.800,0.756,�k�k��,7.6,��
2018/11/19,23:20,0.770,1.164,0.817,1.464,1.054,0.453,0.802,0.757,�k�k��,8.3,��
2018/11/19,23:30,0.771,1.166,0.819,1.467,1.053,0.453,0.802,0.757,�k,7.3,��
2018/11/19,23:40,0.773,1.165,0.819,1.466,1.053,0.454,0.802,0.759,�k,7.2,��
2018/11/19,23:50,0.773,1.167,0.819,1.463,1.054,0.451,0.799,0.756,�k,8.3,��
